Powrót do katalogu

ONEWEB-0034

AktywnyŁącznośćPO
NORAD 45454·PAYLOAD·🇬🇧 United Kingdom

Wystrzelony Mar 21, 2020 z Baikonur Cosmodrome

Loading…

Następne Przeloty (najbliższe 24 godziny)

TLE

ŚwieżeSource: CelesTrak SupGP

Epoka: Sep 14, 2026, 23:09 UTC

1 45454C 20020AG  26257.96473796 -.00002845  00000+0 -80367-2 0  2572
2 45454  87.8980   3.2266 0001826 103.5930 358.8837 13.11419203    19

Śledź ONEWEB-0034 w czasie rzeczywistym z AllMySat

Download on the App Store